Location: La Fredeussais
(48.1780°N, 1.3980°W)
Time: 07:22:00
(UTC+00:00)

STARLINK-2717 - Pass Details

Date: 30 July 2021
Orbit: 546 x 548 km, 53.1° (Epoch: 19 September)

Event Time Altitude Azimuth Distance (km) Brightness Sun altitude
Rises 20:30:59 0° 294° (WNW) 2,717 9.1 -7.3°
Reaches altitude 10° 20:33:20 10° 286° (WNW) 1,820 7.5 -7.6°
Maximum altitude 20:37:07 35° 220° (SW) 894 4.7 -8.1°
Drops below altitude 10° 20:40:52 10° 154° (SSE) 1,810 5.7 -8.6°
Enters shadow 20:41:02 - 153° (SSE) 1,868 5.8 -8.6°
